User: anonymous   Login
Location: Brno
(49.2000°N, 16.6330°E)
Time: 21:40:10
(UTC+01:00)
Language:

NOSS 3-4 (A) - Orbit

View from above orbital plane
View from above orbital plane
View from above satellite
View from above satellite

Ground track
Ground track

The orbit data is extracted from the following two-line orbital elements,

1 31701U 07027A   17049.87406847 0.00000000  00000-0  00000-0 0    06
2 31701  63.4029  25.0017 0179100  25.8752 334.1248 13.40725608    01
Epoch (UTC): 18 February 2017 20:58:39
Eccentricity: 0.0179100
inclination: 63.4029°
perigee height: 972 km
apogee height: 1240 km
right ascension of ascending node: 25.0017°
argument of perigee: 25.8752°
revolutions per day: 13.40725608
mean anomaly at epoch: 334.1248°
orbit number at epoch: 0

The dashed part of the orbit path shows where the satellite is in the earth's shadow,  

DLR